TimeEST,TemperatureF,Dew PointF,Humidity,Sea Level PressureIn,VisibilityMPH,Wind Direction,Wind SpeedMPH,Gust SpeedMPH,PrecipitationIn,Events,Conditions,WindDirDegrees,DateUTC
12:56 AM,30.2,28.4,93,30.52,5.0,NW,4.6,-,N/A,,Clear,320,2012-11-19 05:56:00
1:56 AM,35.1,34.0,96,30.53,4.0,NW,5.8,-,N/A,,Mostly Cloudy,320,2012-11-19 06:56:00
2:56 AM,34.0,32.0,92,30.52,5.0,NW,4.6,-,N/A,,Scattered Clouds,320,2012-11-19 07:56:00
3:56 AM,35.1,32.0,89,30.51,6.0,Calm,Calm,-,N/A,,Mostly Cloudy,0,2012-11-19 08:56:00
4:56 AM,34.0,30.0,85,30.51,7.0,NW,3.5,-,N/A,,Mostly Cloudy,320,2012-11-19 09:56:00
5:56 AM,35.1,32.0,89,30.49,6.0,NNW,3.5,-,N/A,,Mostly Cloudy,330,2012-11-19 10:56:00
6:56 AM,33.1,30.9,92,30.49,4.0,NW,3.5,-,N/A,,Mostly Cloudy,320,2012-11-19 11:56:00
7:56 AM,34.0,32.0,92,30.49,4.0,NNW,5.8,-,N/A,,Scattered Clouds,330,2012-11-19 12:56:00
8:56 AM,37.9,33.1,83,30.49,7.0,NW,3.5,-,N/A,,Partly Cloudy,320,2012-11-19 13:56:00
9:56 AM,42.1,33.1,70,30.48,10.0,North,4.6,-,N/A,,Clear,350,2012-11-19 14:56:00
10:56 AM,46.0,32.0,58,30.46,10.0,Variable,3.5,-,N/A,,Clear,0,2012-11-19 15:56:00
11:56 AM,46.9,28.9,50,30.42,10.0,Calm,Calm,-,N/A,,Clear,0,2012-11-19 16:56:00
12:56 PM,48.9,28.9,46,30.38,10.0,Calm,Calm,-,N/A,,Clear,0,2012-11-19 17:56:00
1:56 PM,50.0,26.1,39,30.35,10.0,NNE,3.5,-,N/A,,Clear,20,2012-11-19 18:56:00
2:56 PM,50.0,25.0,38,30.34,10.0,North,3.5,-,N/A,,Clear,10,2012-11-19 19:56:00
3:56 PM,48.0,30.9,52,30.32,10.0,Calm,Calm,-,N/A,,Scattered Clouds,0,2012-11-19 20:56:00
4:56 PM,42.1,28.9,60,30.32,10.0,Calm,Calm,-,N/A,,Scattered Clouds,0,2012-11-19 21:56:00
5:56 PM,39.0,32.0,76,30.32,10.0,Calm,Calm,-,N/A,,Mostly Cloudy,0,2012-11-19 22:56:00
6:56 PM,39.9,30.9,70,30.32,10.0,NW,4.6,-,N/A,,Mostly Cloudy,310,2012-11-19 23:56:00
7:56 PM,35.1,30.0,82,30.31,9.0,Calm,Calm,-,N/A,,Mostly Cloudy,0,2012-11-20 00:56:00
8:56 PM,34.0,28.9,82,30.30,9.0,NNW,3.5,-,N/A,,Mostly Cloudy,340,2012-11-20 01:56:00
9:56 PM,33.1,28.9,85,30.27,8.0,Calm,Calm,-,N/A,,Mostly Cloudy,0,2012-11-20 02:56:00
10:56 PM,34.0,30.0,85,30.27,8.0,Calm,Calm,-,N/A,,Scattered Clouds,0,2012-11-20 03:56:00
11:56 PM,32.0,28.0,85,30.25,9.0,Calm,Calm,-,N/A,,Mostly Cloudy,0,2012-11-20 04:56:00